User: anonymous   Login
Location: Peebles
(55.6412°N, 3.1714°W)
Time: 08:52:11
(UTC+00:00)
Language:

NOAA 18 - Orbit

View from above orbital plane
View from above orbital plane
View from above satellite
View from above satellite

Ground track
Ground track

The orbit data is extracted from the following two-line orbital elements,

1 28654U 05018A   22334.07137237  .00000177  00000-0  11907-3 0  9999
2 28654  98.9334  44.2439 0013751 220.1974 139.8182 14.12814141903451
Epoch (UTC): 30 November 2022 01:42:46
Eccentricity: 0.0013751
inclination: 98.9334°
perigee height: 840 km
apogee height: 859 km
right ascension of ascending node: 44.2439°
argument of perigee: 220.1974°
revolutions per day: 14.12814141
mean anomaly at epoch: 139.8182°
orbit number at epoch: 90345

The dashed part of the orbit path shows where the satellite is in the earth's shadow,  

DLR